Location: Aragnouet
(42.7874°N, 0.2165°E)
Time: 21:56:55
(UTC+00:00)

CSL-04 Rocket - Pass Details

Date: 09 April 2020
Orbit: 807 x 859 km, 98.9° (Epoch: 05 June)

Event Time Altitude Azimuth Distance (km) Brightness Sun altitude
Rises 19:00:38 0° 174° (S) 3,315 6.6 -5.4°
Reaches altitude 10° 19:03:00 10° 178° (S) 2,385 5.9 -5.8°
Maximum altitude 19:08:11 60° 258° (WSW) 919 4.3 -6.7°
Drops below altitude 10° 19:13:26 10° 339° (NNW) 2,400 6.7 -7.6°
Sets 19:15:49 0° 343° (NNW) 3,338 7.4 -8.1°
